Regional Weather Roundup
Issued by NWS

Home | Current Version | Previous Version | Text Only | Print | Product List | Glossary On
Versions: 1 2 3 4 5 6 7 8 9 10 11 12 13 14 15 16 17 18 19 20 21 22 23 24 25 26 27 28 29 30 31 32 33 34 35 36 37 38 39 40 41 42 43 44 45 46 47 48 49 50
000
ASUS46 KSEW 010810
RWRWA

WASHINGTON REGIONAL WEATHER ROUNDUP
NATIONAL WEATHER SERVICE SEATTLE WA
100 AM PDT WED OCT 01 2014

NOTE:"FAIR" INDICATES FEW OR NO CLOUDS BELOW 12,000 FEET WITH NO
SIGNIFICANT WEATHER AND/OR OBSTRUCTIONS TO VISIBILITY.

WAZ505-507>509-010900-
SEATTLE, TACOMA, EVERETT, AND VICINITY

CITY           SKY/WX    TMP DP  RH WIND       PRES   REMARKS
EVERETT        MOCLDY    54  49  83 N5        30.18R
BOEING FIELD   CLOUDY    59  50  72 CALM      30.18R
RENTON         CLOUDY    58  51  78 CALM      30.17S
SEATAC AIRPORT MOCLDY    58  49  72 E5        30.19R
JBLM-MCCHORD   CLEAR     50  50  99 CALM      30.18R
PUYALLUP       NOT AVBL
JBLM-FT LEWIS  MOCLDY    51  49  93 CALM      30.18R
TACOMA NARROWS PTCLDY    52  49  89 S3        30.18R
$$

WAZ001-503-506-510-514-515-010900-
NORTH INTERIOR

CITY           SKY/WX    TMP DP  RH WIND       PRES   REMARKS
BELLINGHAM     MOCLDY    55  51  86 CALM      30.15R
FRIDAY HARBOR  CLOUDY    54  50  86 W3        30.16R
EASTSOUND      MOCLDY    55  52  88 CALM      30.14R
PORT ANGELES   MOCLDY    53  44  71 W6        30.17R
NAS WHIDBEY    MOCLDY    56  50  80 W5        30.17R
BURLINGTON     CLOUDY    54  52  94 S6        30.17R
$$

WAZ020-022-039-040-504-511-512-010900-
SOUTHWEST INTERIOR

CITY           SKY/WX    TMP DP  RH WIND       PRES   REMARKS
SHELTON        CLOUDY    50  48  93 CALM      30.16R
OLYMPIA        MOCLDY    51  48  89 CALM      30.18R
CHEHALIS       FAIR      50  48  93 S5        30.19R
KELSO          CLEAR     48  45  87 CALM      30.23S
VANCOUVER      CLEAR     50  47  89 CALM      30.20R
SCAPPOOSE, OR  CLEAR     47  46  97 CALM      30.19R
PORTLAND, OR   CLEAR     51  50  96 CALM      30.20S
$$

WAZ021-516-517-010900-
WASHINGTON COAST

CITY           SKY/WX    TMP DP  RH WIND       PRES   REMARKS
FORKS          MOCLDY    50  50 100 CALM      30.19S FOG
HOQUIAM        CLEAR     55  52  89 NW6       30.20R
ASTORIA, OR    MOCLDY    51  49  92 CALM      30.20R
$$

WAZ019-023-024-040-518-519-010900-
CASCADE MOUNTAINS AND COLUMBIA GORGE

CITY           SKY/WX    TMP DP  RH WIND       PRES   REMARKS
STAMPEDE PASS  NOT AVBL
TROUTDALE, OR  FOG       50  47  89 CALM      30.19R VSB 3/4
THE DALLES, OR CLEAR     57  43  59 NW10      30.13R
$$

WAZ026-027-041>044-520-521-010900-
EAST SLOPES

CITY           SKY/WX    TMP DP  RH WIND       PRES   REMARKS
OMAK           CLEAR     40  34  79 N6        30.06R
WENATCHEE      CLEAR     56  36  47 W13       30.08R
ELLENSBURG     CLEAR     51  39  63 N13       30.09R
YAKIMA         CLEAR     47  39  74 W5        30.10R
$$

WAZ028-034-035-010900-
COLUMBIA BASIN

CITY           SKY/WX    TMP DP  RH WIND       PRES   REMARKS
EPHRATA        CLEAR     56  35  45 W9        30.04R
MOSES LAKE     CLEAR     52  36  54 W9        30.06R
PASCO          PTCLDY    53  40  61 CALM      30.08R
HERMISTON, OR  CLEAR     54  44  69 SW13      30.09R
$$

WAZ036>038-010900-
NORTHEAST WASHINGTON

CITY           SKY/WX    TMP DP  RH WIND       PRES   REMARKS
SPOKANE GEIGER CLEAR     44  34  67 W9        30.01S
SPOKANE FELTS  CLEAR     42  39  89 CALM      30.02R
FAIRCHILD AFB  CLEAR     40  32  72 W9        30.02R
COEURDALENE,ID CLEAR     39  36  87 CALM      30.01R
DEER PARK      CLEAR     41  35  79 W3        30.01S
$$

WAZ029>033-010900-
SOUTHEAST WASHINGTON

CITY           SKY/WX    TMP DP  RH WIND       PRES   REMARKS
PULLMAN        CLEAR     46  38  73 W9        30.05R
LEWISTON, ID   PTCLDY    51  42  71 CALM      30.03R
WALLA WALLA    CLEAR     52  43  71 S15       30.10R
PENDLETON, OR  CLOUDY    54  42  64 W15       30.10R
$$


USA.gov is the U.S. government's official web portal to all federal, state and local government web resources and services.